loading
|

THOR ALTAIR R/B, 1583

Orbit data source: Space-Track

THOR ALTAIR R/B, 1583 is space debris in SSO originally from a launch on Fri, 10 Sep 1965 UTC launched from the Air Force Western Test Range (AFWTR). Debris objects in space refer to the collection of defunct objects orbiting the Earth. Examples of debris include non-operational satellites, rocket bodies, and fragments generated from explosions, collisions, or faulty payload assembly.

Loading next visibility...
Loading greatness...
THOR ALTAIR R/B details
Identifier
1583, 1965-072D
Orbit
SSO
Last TLE update1 day ago
Origin
Flag of USUSAF SSD (US)
ManufacturerUTC
MissionSpacecraft
Bus & MotorFW4, Unknown motor
Mass25 kg wet, 25 kg dry
Launch date (UTC)
1965-09-10 (59 years ago)
Launch vehicleUnknown
Launch site
Air Force Western Test Range (AFWTR)
Object type
Payload
Rocket body
Debris
Shape & HBRCyl, 1.5 m
Radar Cross Section0.687 m², Medium (>0.1 m² and < 1m²)

Expand to show TLE details & history

TLE from 1 day ago
0 THOR ALTAIR R/B
1 01583U 65072D   24276.44175798  .00008311  00000-0  14447-2 0  9998
2 01583  98.4676 125.8324 0148924  15.2740 345.2884 14.61345741 75856
Epoch: 2024-10-02T10:36Z
Definitive object data (Epoch: 2024-10-02T10:36:07.889Z)
Latitude0.00002°
Longitude-44.84155°
Altitude590.1 km
Speed7.619 km/s
True Right ascension08h 23m 19s
True Declination0° 00' 00"
Sunlit
Object was in daylight at TLE epoch
Predictive object data (real-time)
Latitude59.6871°
Longitude150.97376°
Altitude729.132 km
Speed7.48 km/s
Apparent Right ascension20h 11m 09s
Apparent Declination14° 02' 41"
Sunlit
Object is in daylight
Predictive observer data (real-time)
Local Sidereal Time07:16:15
Azimuth343.774° N
Elevation-34.548°
Doppler factor1
Orbital elements
Apogee791.124 km
Perigee580.722 km
Semi-major axis7,064.06 km
Eccentricity0.0148924
Inclination98.4676°
RAAN125.8324°
Arg. of periapsis15.274°
True anomaly344.84708°
Mean anomaly345.2884°
Eccentric anomaly345.06854°
Mean motion3.65562 °/min
BSTAR0.0014447
Period98.48 mins
No data available

THOR ALTAIR R/B Visibility forecast

Observer location: 39.9160978°, -105.1181434

THOR ALTAIR R/B is not visible in the next 10 days
Span
Click to sort rows by Start time (UTC) header in descending order
Start Az.
Max El. time (UTC)
Max El. Az.
Max El.
End time (UTC)
End Az.